Weather History for Hailey, ID

Change the Weather History Date:

Tuesday, November 20, 2012

  Actual Average Record
Temperature  
Mean Temperature 40 °F -  
Max Temperature 46 °F 40 °F 55 °F (2008)
Min Temperature 35 °F 21 °F 10 °F (2011)
Degree Days  
Heating Degree Days 24    
Moisture  
Dew Point 37 °F    
Average Humidity 95    
Maximum Humidity 100    
Minimum Humidity 76    
Precipitation  
Precipitation 0.00 in - - ()
Sea Level Pressure  
Sea Level Pressure 30.09 in    
Wind  
Wind Speed 7 mph (WNW)    
Max Wind Speed 10 mph    
Max Gust Speed -    
Visibility 9 miles    
Events Rain    
Averages and records for this station are not official NWS values.
T = Trace of Precipitation, MM = Missing Value Source: NWS Daily Summary

Daily Weather History Graph

Daily Weather History Graph

Search for Another Location

Airport:

Trip Planner

Search our weather history database for the weather conditions in past years. The results will help you decide how hot, cold, wet, or windy it might be!

Date:

Astronomy

Nov. 20, 2012 Rise Set
Actual Time 7:37 AM MST 5:07 PM MST
Civil Twilight 7:06 AM MST 5:38 PM MST
Nautical Twilight 6:31 AM MST 6:13 PM MST
Astronomical Twilight 5:57 AM MST 6:47 PM MST
Moon 1:07 PM MST No Moon Set
Length of Visible Light 10h 32m
Length of Day
9h 29m
First Quarter, 52% of the Moon is Illuminated
Nov 20
First Quarter
Nov 28
Full
Dec 6
Last Quarter
Dec 13
New
Dec 19
First Quarter

Hourly Weather History & Observations

Time (MST) Temp. Windchill Dew Point Humidity Pressure Visibility Wind Dir Wind Speed Gust Speed Precip Events Conditions
12:15 AM 37.4 °F 32.1 °F 35.6 °F 93% 30.18 in 10.0 mi NW 6.9 mph - N/A   Clear
12:55 AM 37.4 °F 32.8 °F 35.6 °F 93% 30.18 in 10.0 mi NW 5.8 mph - N/A   Scattered Clouds
1:15 AM 35.6 °F 31.7 °F 33.8 °F 93% 30.18 in 10.0 mi NNW 4.6 mph - N/A   Mostly Cloudy
1:35 AM 35.6 °F 30.7 °F 33.8 °F 93% 30.17 in 10.0 mi NNW 5.8 mph - N/A   Mostly Cloudy
5:15 AM 37.4 °F 32.1 °F 35.6 °F 93% 30.18 in 7.0 mi NW 6.9 mph - N/A Rain Rain
5:35 AM 37.4 °F 32.1 °F 35.6 °F 93% 30.18 in 10.0 mi NW 6.9 mph - N/A Rain Rain
6:47 AM 37.4 °F 32.8 °F 37.4 °F 100% 30.17 in 5.0 mi NW 5.8 mph - N/A Rain Light Rain
7:47 AM 37.4 °F 32.1 °F 37.4 °F 100% 30.17 in 7.0 mi WNW 6.9 mph - N/A Rain Light Rain
8:47 AM 39.2 °F - 39.2 °F 100% 30.17 in 5.0 mi Calm Calm - N/A Rain Light Rain
9:48 AM 39.2 °F 34.2 °F 39.2 °F 100% 30.16 in 7.0 mi WNW 6.9 mph - N/A Rain Light Rain
10:47 AM 39.2 °F 35.0 °F 39.2 °F 100% 30.16 in 7.0 mi WNW 5.8 mph - N/A Rain Light Rain
11:50 AM 46.4 °F 44.3 °F 39.2 °F 76% 30.15 in 7.0 mi WNW 4.6 mph - N/A Rain Light Rain
12:47 PM 39.2 °F 33.6 °F 39.2 °F 100% 30.11 in 7.0 mi NW 8.1 mph - N/A Rain Light Rain
1:55 PM 41.0 °F 38.0 °F 39.2 °F 93% 30.09 in 7.0 mi WNW 4.6 mph - N/A   Light Drizzle
2:47 PM 41.0 °F 35.8 °F 39.2 °F 93% 30.07 in 7.0 mi West 8.1 mph - N/A Rain Light Rain
3:55 PM 39.2 °F 33.0 °F 39.2 °F 100% 30.08 in 7.0 mi WNW 9.2 mph - N/A Rain Light Rain
4:50 PM 39.2 °F 34.2 °F 39.2 °F 100% 30.06 in 7.0 mi WNW 6.9 mph - N/A Rain Light Rain
5:47 PM 39.2 °F 32.5 °F 37.4 °F 93% 30.04 in 10.0 mi WNW 10.4 mph - N/A   Mostly Cloudy
6:47 PM 37.4 °F 31.4 °F 37.4 °F 100% 30.04 in 10.0 mi WNW 8.1 mph - N/A   Mostly Cloudy
7:47 PM 37.4 °F 31.4 °F 37.4 °F 100% 30.02 in 10.0 mi West 8.1 mph - N/A   Overcast
8:47 PM 39.2 °F 33.0 °F 37.4 °F 93% 30.02 in 10.0 mi West 9.2 mph - N/A   Overcast
9:47 PM 39.2 °F 33.6 °F 37.4 °F 93% 30.01 in 10.0 mi WNW 8.1 mph - N/A Rain Light Rain
10:15 PM 39.2 °F 33.0 °F 37.4 °F 93% 30.00 in 10.0 mi WNW 9.2 mph - N/A   Overcast
10:35 PM 39.2 °F 33.6 °F 37.4 °F 93% 29.99 in 10.0 mi NNW 8.1 mph - N/A   Mostly Cloudy
10:47 PM 39.2 °F 34.2 °F 37.4 °F 93% 29.99 in 10.0 mi WNW 6.9 mph - N/A   Mostly Cloudy
10:55 PM 39.2 °F 33.6 °F 37.4 °F 93% 29.99 in 10.0 mi NW 8.1 mph - N/A   Mostly Cloudy
11:15 PM 39.2 °F 35.0 °F 37.4 °F 93% 29.98 in 10.0 mi NW 5.8 mph - N/A   Overcast
11:35 PM 39.2 °F 33.6 °F 37.4 °F 93% 29.97 in 10.0 mi NW 8.1 mph - N/A   Overcast
11:55 PM 37.4 °F 32.1 °F 37.4 °F 100% 29.97 in 10.0 mi WNW 6.9 mph - N/A   Overcast